Location: Arthez
(43.0833°N, 0.2500°W)
Time: 02:04:57
(UTC+00:00)

NOSS 3-1 (A) - Pass Details

Date: 02 June 2022
Orbit: 711 x 1501 km, 63.4° (Epoch: 21 May)

Event Time Altitude Azimuth Distance (km) Brightness Sun altitude
Rises 23:55:57 0° 317° (NW) 4,044 7.4 -24.8°
Reaches altitude 10° 23:58:42 10° 310° (NW) 3,187 6.7 -24.8°
Maximum altitude 00:05:52 40° 245° (WSW) 1,910 4.7 -24.7°
Enters shadow 00:07:46 36° 217° (SW) 2,072 4.7 -24.7°
